Regional Weather Roundup
Issued by NWS Wakefield, VA

Home | Current Version | Previous Version | Text Only | Print | Product List | Glossary On
Versions: 1 2 3 4 5 6 7 8 9 10 11 12 13 14 15 16 17 18 19 20 21 22 23 24 25 26 27 28 29 30 31 32 33 34 35 36 37 38 39 40 41 42 43 44 45 46 47 48 49 50
000
ASUS41 KAKQ 230315
RWRAKQ

REGIONAL WEATHER ROUNDUP
NATIONAL WEATHER SERVICE WAKEFIELD VA
1100 PM EDT MON MAY 22 2017

Note: "fair" indicates few or no clouds below 12,000 feet with no
significant weather and/or obstructions to visibility. * = Denotes
station may not report precipitation (e.g., rain,snow,etc.),
thunder or fog.

VAZ042-051-052>054-056-230400-
NORTHERN VIRGINIA

CITY           SKY/WX    TMP DP  RH WIND       PRES   REMARKS
WASH NATIONAL  CLOUDY    67  64  90 E5        29.97S
DULLES         PTCLDY    63  60  90 SW3       29.98F
FORT BELVOIR   CLOUDY    62  61  96 CALM      29.97F
QUANTICO       CLOUDY    65  65 100 W5        29.99S
FREDERICKSBRG* PTCLDY    65  65 100 CALM      29.97F
STAFFORD*      MOCLDY    62  62 100 CALM      30.02S FOG
WARRENTON      PTCLDY    62  60  90 CALM      29.98S FOG
CULPEPER*      MOCLDY    65  65 100 CALM      30.00S
MANASSAS*        N/A     62  62 100 CALM      29.99S
LEESBURG*      PTCLDY    63  63 100 CALM      30.01R
WINCHESTER     CLEAR     61  50  67 NW3       30.02R
FRONT ROYAL*   CLEAR     61  52  72 CALM      30.01S
LURAY*         CLEAR     63  52  67 N5        30.01S
$$

VAZ048-049-060>072-079>083-230400-
CENTRAL AND SOUTH CENTRAL VIRGINIA

CITY           SKY/WX    TMP DP  RH WIND       PRES   REMARKS
RICHMOND       MOCLDY    65  65 100 CALM      29.97S
CHESTERFIELD*  FAIR     N/A N/A N/A CALM      29.98S
PETERSBURG*    FOG       62  62  97 CALM      29.98S VSB 1/2
HANOVER        FOG       63  61  93 CALM      29.98S VSB 3/4
TAPPAHANNOCK*  PTCLDY    64  64 100 CALM      29.99R FOG
QUINTON*       FAIR      64  64 100 CALM      29.97S FOG
CHARLOTTSVILLE MOCLDY    69  68  96 N3        29.98F
GORDONSVILLE*  CLOUDY    67  67 100 CALM      29.99R
ORANGE*        CLOUDY    64  64 100 CALM      29.98S
LOUISA*        CLOUDY    70  68  94 CALM      29.97S
BUMPASS*       MOCLDY    65  65 100 CALM      29.98F
FARMVILLE*     PTCLDY    68  68 100 CALM      29.95F
CREWE*           N/A     65  61  87 CALM      29.97S VSB 1
FORT PICKETT*  FAIR     N/A N/A N/A SE3       29.98R
CHASE CITY*    FAIR      66  64  94 CALM      29.98S
CLARKSVILLE*   FAIR      68  68 100 CALM      29.96F
SOUTH HILL*    CLOUDY    66  66 100 CALM      30.03S
LAWRENCEVILLE* FAIR      66  65  96 CALM      29.97F
EMPORIA*         N/A     63  63 100 CALM      29.99S
$$

VAZ088>098-230400-
SOUTHEAST VIRGINIA

CITY           SKY/WX    TMP DP  RH WIND       PRES   REMARKS
NORFOLK        CLOUDY    70  66  87 CALM      29.95F
VIRGINIA BEACH CLOUDY    69  66  90 CALM      29.95S
NORFOLK NAVAL  CLOUDY    69  65  86 NW5       29.97S
WEST POINT*    PTCLDY    66  65  97 CALM      29.98S
SALUDA*        MOCLDY    66  66 100 NW5       29.96S
NEWPORT NEWS   NOT AVBL
LANGLEY AFB    MOCLDY    65  65 100 CALM      29.94F
FORT EUSTIS    MOCLDY    66  64  91 CALM      29.94S
WILLIAMSBURG*  CLOUDY    66  66 100 CALM      29.98S
HR EXEC AP*    FAIR      63  61  94 CALM      29.95S VSB 1
FRANKLIN*        N/A     65  65  97 CALM      29.98R FOG
US460-WAKEFLD  PTCLDY    65  64  97 CALM      29.96F FOG
$$

VAZ020-022-025-037-045-230400-
WEST CENTRAL AND SOUTHWEST VIRGINIA

CITY           SKY/WX    TMP DP  RH WIND       PRES   REMARKS
STAUNTON*      CLOUDY    63  50  61 N5        30.03S
WAYNESBORO*    PTCLDY    64  51  63 N6        30.02S
HOT SPRINGS VA CLOUDY    54  43  66 CALM      30.09F
LYNCHBURG      PTCLDY    60  58  92 CALM      30.00R
DANVILLE       MOCLDY    67  67 100 CALM      29.97F
SOUTH BOSTON*    N/A     67  66  96 CALM      29.96F
MARTINSVILLE   CLOUDY    64  63  96 CALM      30.02S
ROANOKE        PTCLDY    65  53  65 N7        30.02S
BLACKSBURG     CLOUDY    58  55  88 CALM      30.06F
DUBLIN*        PTCLDY    62  48  58 CALM      30.05F
MARION*        PTCLDY    58  55  91 CALM      30.07S
HILLSVILLE*    PTCLDY    61  56  83 CALM      30.05S
RICHLANDS*     FAIR      58  54  84 NE6       30.05S
WISE*          CLOUDY    57  57 100 NE3       30.05F
ABINGDON*      CLOUDY    63  58  84 E3        30.02S
$$

MDZ021>025-VAZ099-100-230400-
SOUTHERN MARYLAND AND THE DELMARVA PENINSULA

CITY           SKY/WX    TMP DP  RH WIND       PRES   REMARKS
PATUXENT RIVER PTCLDY    64  64 100 NW6       29.97R
BAY BRIDGE APT MOCLDY    63  63 100 N5        29.99R FOG
LEONARDTOWN    CLOUDY    61  59  94 CALM      30.00R VSB 3/4
DOVER          CLOUDY    64  64 100 N3        29.95F
GEORGETOWN     FOG       66  64  93 NE3       29.96F VSB 1/4
EASTON         FOG       65  63  94 N5        30.02R VSB 1/2
CAMBRIDGE      FOG       66  66 100 NW6       29.97R VSB 3/4
SALISBURY      FOG       66  66 100 NE3       29.95F VSB 1/4
OCEAN CITY     FOG       65  64  97 N6        29.95F VSB 1/2
WALLOPS ISLAND CLOUDY    66  66 100 N6        29.93F
ACCOMACK*      CLOUDY    67  53  60 NW5       29.94S HAZE
$$

NCZ012>017-030>032-230400-
NORTH CENTRAL AND EASTERN NORTH CAROLINA

CITY           SKY/WX    TMP DP  RH WIND       PRES   REMARKS
ROANOKE RAPIDS FAIR      68  66  94 CALM      29.98S
RALEIGH        CLOUDY    73  68  84 SE8       29.98S
ELIZABETH CITY CLOUDY    70  70 100 SW5       29.97S
AHOSKIE*         N/A     66  66  99 CALM      29.98S
EDENTON*       CLOUDY    72  67  85 CALM      29.98F
CURRITUCK*     CLOUDY   N/A N/A N/A CALM      29.97F
KILL DEVIL HLS NOT AVBL
MANTEO         CLOUDY    69  67  93 SW14      29.98F
CAPE HATTERAS  LGT RAIN  69  65  86 SW12      30.01S
TARBORO*       NOT AVBL
GOLDSBORO      LGT RAIN  70  70 100 SW7       29.98S
WASHINGTON     CLOUDY    71  66  85 SW3       29.98F
GREENVILLE     CLOUDY    73  70  88 SW7       30.00S
NEW BERN       LGT RAIN  70  68  93 W5        30.00S
WILMINGTON     LGT RAIN  68  67  96 CALM      30.00F
$$

VAZ048-230400-
ELSEWHERE

CITY           SKY/WX    TMP DP  RH WIND       PRES   REMARKS
HARRISBURG PA  CLOUDY    61  59  93 CALM      29.98S
BALTIMORE      MOCLDY    61  61 100 CALM      29.98R
ANNAPOLIS      CLEAR     65  65 100 CALM      29.98R
ANDREWS AFB    FOG       61  59  94 CALM      29.96  VSB 1/4
PHILADELPHIA   CLOUDY    65  61  87 VRB6      29.97F
HENDERSON NC   CLOUDY    67  64  90 S3        29.97F
GREENSBORO     CLOUDY    71  68  90 CALM      29.96F
ROCKY MOUNT    CLOUDY    72  70  93 CALM      29.97F
$$

VAZ100-230400-
MARINE

STATION/POSITION TIME  TEMP    WIND        PRES    WAVE   SWELL
                       AIR SEA DIR/SP/G            HT/PER HT/PER
                 (UTC) (F)     (DEG/KT/KT) (MB)    (FT/S) (FT/S)
CAPE MAY NJ      0236   63 61   CALM  /  1 1014.2F
LEWES DE         0236   62 62   CALM  /  1 1014.4F
15NM E FENWICK I 0250   62 58  340/  2/  4 1014.6F   3/ 8   2/ 8
OCEAN-CITY-INLET 0236   65 62   20/  4/  4 1014.7F
WACHAPREAGUE VA  0236   67 68  310/  2/  4 1013.3R
THOMAS POINT MD  0300   64 65  360/  6/  7   N/A
GOOSES REEF MD   0300   66 58   10/  4/  6 1015.8    0
COVE POINT MD    0236   65      10/  4/  5 1015.5R
SOLOMONS ISLAND  0236   64 67  310/  4/  6   N/A
BISHOPS HEAD MD  0236   66 69  360/  3/  4 1014.9S
PINEY POINT MD   0248           30/  3/  3   N/A
POTOMAC MD       0300   65 68  340/  6/  8 1013.8    0
CAMBRIDGE MD     0236   66 70                N/A
LEWISETTA VA     0236   66 69  360/  2/  2 1014.8R
RAPPAHANNOCK LGT 0248          330/ 11/ 11 1014.8S
STINGRAY PT      0300   67 68  350/  8/ 10 1014.3    1/ 2
YORK RVR RNG VA  0236   68     300/  5/  5 1013.9S
YORKTOWN VA      0236   68 69  300/  4/  5 1014.3S
JAMESTOWN VA     0300   68 73   10/  2/  2   N/A     0
DOMINION TERM VA 0236   69     330/  4/  6 1014.4F
KIPTOPEKE VA     0248      66  320/  9/ 12   N/A
CHES BAY BRIDGE  0236   69 68  300/  7/  8 1014.2F
CAPE HENRY VA    0236   68     290/  6/  8   N/A
WILLOUBY STN VA  0236   69     310/  5/  6 1014.2F
S CRANEY ISL VA  0236   69     260/  1/  3 1014.3F
CAPE HENRY BUOY  0242      64                N/A     3/ 9
1ST LANDING BUOY 0300   68 67              1014.5    1/ 3
CAPE CHARLES BUO 0251      63                N/A     3/ 8
64NM E OF VA BCH 0250   67 67  230/ 16/ 19 1014.2S   4/ 8   2/ 8
DUCK PIER NC     0236   71 65  200/  8/ 11 1014.3F
44100 DUCK FRF   0235      65                N/A     3/ 8
44056 DUCK FRF   0230      66                N/A     2/ 8
OREGON INLET NC  0236   71 75  210/ 14/ 16 1014.9F
HATTERAS NC      0236   69 75  190/  6/ 15 1016.0F
DIAMOND SHLS NC  0250   71 78  290/ 17/ 21 1016.4F   4/ 9   2/ 9
CAPE LOOKOUT NC  0300   76     210/  7/  9 1015.2F
$$



USA.gov is the U.S. government's official web portal to all federal, state and local government web resources and services.